Back to catalog

COSMOS 1930

AliveMilitaryLEO
NORAD 18943·PAYLOAD·🇷🇺 Russia

Launched Mar 11, 1988 from Plesetsk Cosmodrome

Loading…

Next Passes (next 24 hours)

TLE

FreshSource: Space-Track

Epoch: Sep 14, 2026, 13:49 UTC

1 18943U 88016G   26257.57602622 -.00000002  00000-0  85419-4 0  9994
2 18943  74.0063 311.7196 0030102 322.9954 208.1793 12.56642226766662

Track COSMOS 1930 in real time with AllMySat

Download on the App Store